Theta_e
280 276 272 273 275 276 274 274 273 274 281 281 279 279 279 281 281 281 281 281 282 283 285 286 287 287 287 287 287 288 288 288 289 289 290 291 291 294 297 299 301 300 302 304
275 273 276 278 278 276 275 274 273 276 282 281 280 277 279 280 280 281 281 281 282 283 283 284 285 285 286 286 287 287 287 287 288 289 290 291 291 292 293 295 297 298 300 300
272 273 278 277 276 276 274 273 273 275 280 281 280 275 276 279 280 280 280 281 281 281 282 283 283 283 284 285 286 286 287 287 288 289 289 289 290 290 290 291 292 295 297 299
274 276 276 276 274 275 274 276 276 276 275 270 282 264 274 276 276 277 278 278 279 280 282 282 283 282 282 283 285 286 287 287 288 288 287 286 286 286 289 290 291 292 294 296
273 274 273 273 274 276 275 277 276 277 274 271 272 266 271 275 274 273 275 277 278 280 280 281 282 283 283 283 283 284 285 286 287 287 287 286 285 286 288 289 289 289 291 293
274 276 274 273 276 276 277 277 277 275 273 262 268 268 268 273 275 274 274 276 278 279 280 281 282 283 282 283 283 283 284 285 286 286 286 285 285 285 285 286 286 287 288 290
274 273 275 276 274 276 275 271 258 260 258 261 270 265 270 274 274 274 275 275 277 278 278 279 280 280 281 281 282 283 283 284 285 285 285 285 285 285 285 285 285 285 286 287
265 267 272 276 273 271 273 269 261 256 259 261 269 262 268 276 276 276 276 276 277 277 278 279 279 279 280 281 281 281 282 282 284 284 284 285 285 285 285 285 285 285 285 286
263 268 274 276 275 273 270 267 272 256 250 256 264 271 275 276 274 274 274 274 274 276 277 278 279 279 279 280 280 280 281 281 282 283 284 284 284 284 284 285 285 285 286 286
268 264 273 275 275 275 273 274 263 258 254 253 261 263 265 274 275 275 273 273 275 276 277 278 279 278 279 279 280 280 280 281 281 282 283 284 284 284 284 284 284 284 285 285
271 266 269 273 270 268 269 269 267 263 261 254 254 263 267 272 276 275 272 275 275 277 277 277 279 278 279 279 280 279 279 280 281 282 282 283 283 283 283 283 283 283 284 284
273 262 260 266 271 271 272 268 267 258 257 261 261 262 275 275 275 274 275 277 276 277 277 278 278 278 278 278 279 279 280 280 281 281 282 282 283 282 282 282 282 283 283 283
272 262 255 263 267 271 268 271 270 263 260 256 256 262 273 274 273 275 275 276 276 277 277 278 277 277 277 278 279 279 279 280 281 281 281 281 281 281 281 281 281 282 281 281
275 264 262 262 264 265 265 267 266 262 254 260 262 265 270 273 273 274 275 276 275 276 277 277 276 277 277 279 279 280 280 280 281 281 281 281 280 281 281 281 281 280 280 280
269 259 262 263 267 267 268 269 268 264 264 260 266 265 270 273 273 275 276 277 277 276 277 277 277 277 277 278 278 279 280 280 280 280 280 280 281 281 280 280 279 279 279 280
272 258 261 257 264 266 267 269 269 270 270 268 268 268 274 275 275 275 276 276 276 276 277 278 279 279 279 280 279 280 280 280 281 279 280 280 280 279 279 278 278 278 278 278
265 260 255 255 261 258 260 264 268 269 269 269 265 270 271 271 273 274 275 276 276 277 277 278 279 279 280 280 280 279 280 280 280 280 280 280 279 278 277 277 277 277 276 276
261 259 255 255 254 253 268 268 269 270 271 271 271 272 273 274 274 275 276 275 276 277 278 279 279 279 279 280 280 280 280 280 280 279 278 278 277 276 276 276 276 275 275 274
271 264 254 255 249 261 268 268 267 267 267 273 271 273 274 275 271 272 276 276 276 275 277 279 280 280 278 279 280 279 279 278 276 273 274 275 275 274 274 274 273 273 273 274
269 268 262 250 250 252 266 268 271 271 263 272 273 273 273 272 267 272 276 276 277 277 276 277 279 279 278 276 277 277 277 274 271 272 273 273 273 273 271 271 272 273 273 275
264 266 265 259 255 259 269 271 271 262 267 273 273 274 273 271 274 276 276 276 277 275 275 277 275 275 274 274 276 272 269 268 271 271 271 271 271 269 270 270 271 272 272 272
261 260 259 260 256 258 271 270 268 273 274 275 274 274 274 275 277 276 276 276 277 276 276 276 272 270 271 274 275 269 267 268 269 269 268 268 267 268 269 269 269 270 270 270
263 267 263 265 265 272 273 274 276 276 275 275 274 277 275 274 275 276 276 277 277 278 277 272 269 269 269 268 271 269 266 267 267 267 265 265 267 268 269 268 268 268 269 269
268 271 267 267 271 272 273 275 276 276 275 278 278 278 277 276 277 277 278 278 278 277 276 272 272 268 267 266 268 264 264 266 265 264 264 265 266 266 267 268 268 267 267 268
271 271 270 270 274 276 276 277 277 278 279 279 279 278 278 278 278 278 278 278 277 276 275 272 271 270 268 267 265 262 265 264 263 263 264 265 265 265 265 266 266 268 270 271
274 274 272 272 277 276 277 279 279 278 278 279 278 278 278 278 278 279 277 277 275 273 271 269 268 266 265 263 262 262 260 261 260 261 262 262 262 263 263 264 264 269 271 273
Wind_Speed
14 16 9 7 6 5 6 5 7 3 2 9 9 10 6 6 7 8 8 8 9 9 7 10 12 12 13 15 16 18 19 19 16 14 14 13 14 12 10 9 14 14 16 17
8 14 8 4 5 8 8 5 5 0 6 7 8 7 5 4 4 5 6 7 7 7 8 9 10 11 13 14 14 15 16 16 15 12 11 9 10 8 9 10 12 15 17 18
12 4 7 4 11 8 5 6 3 4 2 7 7 4 4 2 4 5 6 5 6 7 7 8 9 8 8 11 12 13 13 13 12 14 10 11 10 9 11 13 13 15 16 16
9 5 5 7 7 5 3 3 1 4 4 3 0 4 3 4 3 4 5 6 6 6 7 6 7 7 7 8 8 9 11 12 12 13 11 13 10 12 11 10 12 13 16 15
1 8 8 7 4 5 1 3 3 2 4 4 5 5 5 5 3 3 3 5 6 6 6 7 7 6 6 7 7 7 8 9 11 11 10 9 10 9 8 10 15 14 13 15
4 3 4 3 4 2 6 2 5 4 3 4 4 5 4 5 5 4 1 2 5 6 6 7 6 6 6 6 7 7 7 8 9 10 10 11 11 12 11 12 11 11 11 12
5 4 5 4 5 5 9 7 5 7 7 5 2 4 7 4 3 5 4 3 5 6 6 7 8 7 7 7 7 7 9 10 10 10 9 10 9 11 11 12 10 13 11 12
4 6 8 10 4 2 5 4 6 4 2 5 6 5 5 5 5 4 4 3 5 7 7 8 8 8 7 6 7 7 7 7 9 10 11 10 8 7 8 9 10 9 9 10
4 1 4 3 3 2 5 6 3 9 1 4 4 7 1 5 4 5 5 2 5 6 8 9 9 8 7 7 7 6 7 7 7 7 7 10 9 10 10 12 10 8 11 11
3 3 2 4 2 6 6 4 3 5 2 5 5 6 6 6 8 6 4 5 8 8 9 8 9 8 6 7 6 7 7 7 6 8 7 9 10 10 10 10 12 13 13 14
3 4 3 2 5 1 4 2 6 5 4 6 1 8 7 4 5 7 5 6 9 10 10 9 9 8 7 7 7 7 7 7 7 6 7 8 10 11 10 10 11 12 13 14
1 5 1 1 5 4 2 4 4 7 5 1 3 11 2 4 5 3 4 10 9 9 10 11 9 8 7 7 7 8 8 7 7 6 7 9 9 10 11 11 12 12 13 14
5 1 4 8 7 5 2 4 5 5 4 6 7 9 2 5 5 6 8 10 9 10 11 11 8 7 7 7 7 8 8 8 7 6 7 8 10 10 12 13 13 13 13 13
5 2 7 8 7 4 3 3 4 7 5 4 11 7 13 12 12 12 12 11 8 10 11 9 7 7 7 7 8 10 10 7 7 6 7 8 9 10 11 13 13 13 13 13
6 3 2 3 6 3 8 11 9 9 6 8 6 9 15 15 12 12 13 15 12 12 10 9 7 7 8 8 9 9 8 8 6 6 7 9 9 9 11 12 14 14 13 13
1 2 3 5 5 3 11 16 15 15 18 19 22 25 23 21 16 13 14 12 11 11 10 10 9 9 10 10 9 9 9 9 5 6 8 8 9 10 11 12 13 13 14 14
6 6 4 7 4 6 10 11 14 8 6 15 15 15 4 7 9 11 13 11 10 11 11 10 11 11 11 10 10 10 9 7 6 6 7 7 8 11 13 13 13 14 14 14
6 6 3 4 5 1 7 2 5 12 7 17 9 9 9 12 10 7 11 10 13 12 13 11 11 11 10 8 8 9 7 7 6 6 6 8 9 11 13 13 12 14 12 14
3 6 2 3 4 9 11 3 8 10 12 20 14 16 17 16 1 9 14 13 15 12 13 12 11 10 7 9 9 6 8 5 4 5 6 8 10 12 12 13 13 13 13 13
4 3 6 3 5 8 7 2 3 5 7 12 13 15 14 4 4 9 11 8 12 11 9 11 11 7 6 7 4 5 6 3 4 5 8 9 10 11 12 13 13 11 11 14
5 3 14 6 5 11 15 7 1 6 10 6 9 13 11 7 11 11 6 9 7 8 10 8 7 7 6 4 3 3 3 4 5 7 8 9 9 11 12 12 11 12 13 13
10 10 6 4 3 14 9 7 10 12 3 4 6 10 10 12 14 12 10 12 12 11 12 8 5 5 3 1 2 3 4 4 6 7 9 9 10 9 9 11 11 11 11 12
2 11 8 15 12 4 13 6 18 4 4 5 4 13 9 10 11 13 14 13 13 13 10 3 4 2 1 2 2 4 4 6 7 8 9 10 10 10 9 11 12 10 9 8
7 7 6 3 10 19 10 14 14 11 12 16 16 15 15 15 15 15 14 12 9 8 7 3 1 2 3 1 0 3 5 6 7 9 9 9 10 11 9 8 8 9 8 9
7 9 6 11 18 20 14 16 18 17 15 16 17 15 17 15 16 16 14 12 8 5 4 3 3 3 2 1 2 3 5 7 8 8 9 10 8 10 11 9 9 9 9 10
9 13 7 15 16 14 15 11 11 11 15 14 11 13 13 13 16 14 12 8 4 5 3 4 2 2 4 2 3 4 3 5 5 10 8 8 9 9 8 9 11 13 18 20
Wind_Direction
21 58 34 335 28 95 95 80 92 38 63 64 78 89 67 40 52 52 43 37 37 29 12 22 23 22 22 22 17 15 11 11 10 8 4 2 359 356 3 357 357 357 345 355
45 48 333 308 36 66 50 88 24 340 20 82 115 91 83 52 42 44 37 29 20 9 9 12 17 18 20 18 17 16 13 9 10 6 1 354 347 353 355 352 355 355 352 357
77 305 315 44 33 30 51 77 356 112 54 50 143 134 140 67 77 56 38 23 15 3 0 358 3 360 6 14 8 11 7 7 9 5 357 356 353 353 355 357 354 353 354 349
71 338 27 36 59 8 63 31 194 148 106 161 240 269 222 175 109 59 37 24 10 2 356 352 351 351 356 355 348 351 0 5 5 1 3 7 1 352 344 340 340 343 347 349
351 358 8 30 358 350 235 340 153 116 96 88 341 71 276 151 184 134 47 15 351 349 358 350 345 340 336 348 346 337 342 355 357 359 2 357 354 345 336 337 339 342 342 345
56 9 47 304 303 315 294 140 48 52 62 38 258 117 260 202 196 147 134 327 315 321 330 328 319 328 325 339 347 336 349 347 348 350 349 351 345 339 340 341 341 340 337 339
352 19 331 24 352 5 24 43 351 2 14 203 319 38 243 210 158 158 194 250 289 304 313 315 326 325 320 334 339 346 349 346 344 347 344 343 331 335 333 335 333 333 333 334
57 350 9 340 61 297 25 99 133 209 317 282 327 252 264 191 161 173 206 255 306 334 329 314 308 307 304 313 325 336 331 328 334 338 337 336 332 329 325 325 323 320 323 322
82 64 331 13 10 61 306 46 144 104 87 40 278 285 22 126 185 214 221 294 309 322 306 300 304 295 296 308 306 315 316 321 323 318 317 326 328 326 322 319 320 317 315 317
199 59 22 305 347 23 83 144 47 8 51 309 301 279 245 219 222 245 274 310 313 305 300 300 301 293 287 287 275 303 310 303 300 308 314 320 316 317 316 315 316 318 315 320
115 101 284 23 25 0 356 41 56 109 111 160 284 269 217 238 222 226 252 304 297 302 296 290 290 277 272 281 285 292 293 300 303 302 304 309 313 315 314 312 313 315 313 316
84 138 109 172 285 246 241 185 121 116 266 197 151 272 264 240 231 202 285 293 286 286 289 288 279 276 295 291 297 290 290 293 288 286 296 304 307 311 313 313 312 313 312 313
190 345 20 347 353 345 210 187 117 99 72 209 141 260 189 263 282 257 283 290 297 296 297 296 292 286 291 301 289 279 281 278 281 290 295 301 306 310 312 311 311 311 313 310
94 106 164 190 202 153 256 215 157 130 123 198 233 278 286 278 284 293 296 294 288 286 284 284 284 285 288 284 281 288 291 276 280 287 290 294 299 305 307 309 308 312 312 308
115 177 129 267 242 242 246 243 193 198 175 182 245 221 259 270 282 282 284 285 286 284 288 280 262 265 268 272 275 279 275 278 276 282 288 291 295 300 306 308 310 309 307 307
115 244 89 309 336 332 269 257 237 229 232 241 255 271 266 272 274 268 264 270 266 268 270 277 263 260 265 267 276 282 273 272 273 277 281 291 301 307 308 309 309 305 309 309
134 125 77 270 331 328 296 246 209 187 198 214 226 234 252 253 252 248 254 257 255 270 267 261 251 252 262 265 275 274 272 275 266 264 281 292 303 306 307 307 304 309 310 307
126 101 102 254 8 316 237 183 167 213 244 223 262 262 252 255 255 280 256 243 266 261 267 264 254 254 255 261 266 274 277 274 268 270 287 301 305 305 305 303 306 307 306 302
140 119 100 165 203 306 288 124 167 173 242 247 235 253 256 267 33 278 260 243 242 242 253 256 258 256 264 272 277 280 289 291 283 291 293 305 307 303 302 303 305 304 305 305
82 100 132 102 170 221 246 336 157 126 283 234 203 236 246 239 249 263 258 242 250 244 244 259 262 262 249 271 282 288 291 304 302 305 303 302 298 295 300 297 300 300 299 296
137 192 222 200 252 277 248 202 199 100 247 202 189 222 232 204 230 263 272 266 239 237 256 263 255 251 261 289 306 297 303 298 298 298 293 296 294 293 291 292 296 299 300 298
160 168 201 155 159 274 174 93 185 219 191 212 217 232 236 244 269 268 265 262 269 272 277 265 245 253 268 13 24 299 288 288 298 297 294 295 295 293 295 294 296 296 296 298
224 196 188 193 206 236 191 215 220 268 252 258 246 273 233 246 257 267 261 259 256 257 261 224 190 220 299 95 67 314 284 313 307 304 300 297 296 293 293 299 301 302 300 298
253 186 241 84 225 240 219 245 251 245 248 270 272 267 273 264 269 274 268 264 254 251 242 173 190 294 289 234 232 256 299 313 309 300 303 303 302 306 302 298 295 294 298 300
198 150 223 260 259 273 252 241 249 257 252 257 261 255 260 266 268 266 269 266 268 225 173 180 253 265 258 291 290 289 321 331 309 305 304 304 304 307 304 298 297 293 288 293
192 218 213 252 243 232 259 254 242 236 253 254 248 265 257 244 257 269 263 258 218 197 180 235 218 245 282 302 293 307 320 320 311 309 308 309 305 306 302 304 306 297 300 306